Location: La Chapelle
(48.3135°N, 1.3085°W)
Time: 02:54:44
(UTC+00:00)

FALCON 9 DEB - Pass Details

Date: 03 March 2021
Orbit: 367 x 387 km, 53.0° (Epoch: 12 April)

Event Time Altitude Azimuth Distance (km) Brightness Sun altitude
Rises 19:28:55 0° 290° (WNW) 2,291 8.5 -16.8°
Reaches altitude 10° 19:31:06 10° 299° (WNW) 1,433 6.9 -17.1°
Maximum altitude 19:34:05 36° 8° (N) 642 3.9 -17.6°
Enters shadow 19:34:36 33° 31° (NNE) 677 3.9 -17.7°
